This is the latest recevied weather packets stored in our database for station/object K0VSC-1. If no packets are shown the sender has not sent any weather packets the latest 1 day(s).
| Time | Temp. | Humidity | Pressure | Rain* | Wind** | Luminosity | Snow |
|---|---|---|---|---|---|---|---|
| 1778022485 | 5.56° C | 49% | 1012.2 hPa | 0 mm | 3.58 m/s, 323° | 127 W/m² | - |
| 1778022185 | 5.56° C | 49% | 1012.2 hPa | 0 mm | 3.13 m/s, 327° | 121 W/m² | - |
| 1778021885 | 6.11° C | 48% | 1012.2 hPa | 0 mm | 3.58 m/s, 304° | 163 W/m² | - |
| 1778021585 | 6.11° C | 48% | 1012.1 hPa | 0 mm | 3.13 m/s, 317° | 181 W/m² | - |
| 1778021285 | 6.11° C | 48% | 1012 hPa | 0 mm | 3.13 m/s, 305° | 146 W/m² | - |
| 1778020985 | 6.67° C | 47% | 1012 hPa | 0 mm | 2.24 m/s, 355° | 179 W/m² | - |
| 1778020685 | 6.67° C | 48% | 1011.9 hPa | 0 mm | 1.79 m/s, 329° | 178 W/m² | - |
| 1778020385 | 6.11° C | 47% | 1011.9 hPa | 0 mm | 2.68 m/s, 298° | 227 W/m² | - |
| 1778020085 | 6.11° C | 48% | 1011.9 hPa | 0 mm | 2.24 m/s, 318° | 214 W/m² | - |
| 1778019785 | 6.11° C | 48% | 1012 hPa | 0 mm | 2.24 m/s, 298° | 190 W/m² | - |
| 1778019485 | 6.11° C | 47% | 1011.9 hPa | 0 mm | 3.13 m/s, 306° | 167 W/m² | - |
| 1778019185 | 6.11° C | 47% | 1012 hPa | 0 mm | 2.68 m/s, 319° | 178 W/m² | - |
| 1778018885 | 6.11° C | 47% | 1011.9 hPa | 0 mm | 2.24 m/s, 325° | 223 W/m² | - |
| 1778018585 | 6.67° C | 45% | 1011.9 hPa | 0 mm | 2.24 m/s, 310° | 209 W/m² | - |
| 1778018285 | 6.67° C | 46% | 1011.8 hPa | 0 mm | 1.79 m/s, 298° | 206 W/m² | - |
| 1778017985 | 6.11° C | 46% | 1011.8 hPa | 0 mm | 1.79 m/s, 290° | 591 W/m² | - |
| 1778017685 | 6.11° C | 47% | 1011.9 hPa | 0 mm | 1.79 m/s, 312° | 316 W/m² | - |
| 1778017385 | 6.11° C | 48% | 1011.9 hPa | 0 mm | 2.68 m/s, 307° | 230 W/m² | - |
| 1778017085 | 6.11° C | 48% | 1011.8 hPa | 0 mm | 2.24 m/s, 309° | 243 W/m² | - |
| 1778016785 | 6.67° C | 47% | 1011.9 hPa | 0 mm | 1.79 m/s, 303° | 230 W/m² | - |
| 1778016485 | 6.67° C | 47% | 1011.9 hPa | 0 mm | 2.68 m/s, 325° | 316 W/m² | - |
| 1778016185 | 6.67° C | 48% | 1011.9 hPa | 0 mm | 2.24 m/s, 286° | 355 W/m² | - |
| 1778015885 | 6.11° C | 47% | 1011.8 hPa | 0 mm | 2.24 m/s, 311° | 295 W/m² | - |
| 1778015585 | 6.67° C | 46% | 1011.9 hPa | 0 mm | 2.24 m/s, 298° | 262 W/m² | - |
| 1778015285 | 6.67° C | 47% | 1011.9 hPa | 0 mm | 2.24 m/s, 298° | 489 W/m² | - |
* Rain latest hour (hover to see other rain measurements)
** Current wind speed in m/s (hover to see current wind gust speed)